Location: Bush Observatory
(40.2653°N, 94.3194°W)
Time: 03:11:55
(UTC-05:00)

JAS-2 - Visible Passes

Search period start: 01 October 2014 00:00
Search period end: 11 October 2014 00:00
Orbit: 800 x 1322 km, 98.5° (Epoch: 30 September)

Date Brightness Start Highest point End Pass type
(mag) Time Alt. Az. Time Alt. Az. Time Alt. Az.
01 Oct 13.2 05:15:25 10° E 05:15:29 10° E 05:15:33 10° E visible
02 Oct 12.1 06:00:25 10° NE 06:06:11 28° E 06:12:22 10° SSE visible
02 Oct 12.5 19:45:26 10° WSW 19:48:14 15° W 19:51:06 10° NW visible
04 Oct 12.2 05:55:36 10° NE 06:01:20 26° E 06:07:27 10° SSE visible
04 Oct 12.4 19:40:04 10° SW 19:43:14 16° W 19:46:30 10° NW visible
05 Oct 10.7 06:44:48 10° NNE 06:51:42 61° E 06:59:14 10° S visible
06 Oct 12.3 05:50:48 10° NE 05:56:29 25° E 06:02:31 10° SE visible
06 Oct 12.3 19:34:44 10° SW 19:38:14 18° W 19:41:53 10° NW visible
07 Oct 10.8 06:39:54 10° NNE 06:46:53 57° E 06:54:27 10° S visible
08 Oct 12.4 05:46:01 10° NE 05:51:39 24° E 05:57:33 10° SE visible
08 Oct 12.3 19:29:26 10° SW 19:33:14 20° W 19:37:14 10° NW visible
09 Oct 10.9 06:35:02 10° NNE 06:42:05 54° E 06:49:38 10° S visible
10 Oct 12.4 05:41:15 10° NE 05:46:48 23° E 05:52:35 10° SE visible
10 Oct 12.1 19:24:11 10° SW 19:28:14 22° W 19:32:34 10° NW visible
